QPF
0.00 0.00 0.00 0.00 0.00 0.00 0.00 0.00 0.00 0.00 0.00 0.00 0.00 0.00 0.00 0.00 0.00 0.02 0.01 0.01 0.01 0.00 0.00 0.00 0.00 0.00 0.00 0.01 0.02 0.02 0.01 0.01 0.00 0.00 0.00 0.00 0.00 0.00 0.01 0.00 0.00 0.00 0.00
0.00 0.00 0.00 0.00 0.00 0.00 0.00 0.00 0.00 0.00 0.00 0.00 0.00 0.00 0.00 0.00 0.00 0.00 0.01 0.03 0.03 0.01 0.02 0.01 0.00 0.00 0.00 0.02 0.02 0.01 0.01 0.01 0.00 0.00 0.00 0.00 0.00 0.00 0.01 0.00 0.00 0.00 0.00
0.00 0.00 0.00 0.00 0.00 0.00 0.00 0.00 0.00 0.00 0.00 0.00 0.00 0.00 0.00 0.00 0.00 0.00 0.01 0.02 0.03 0.03 0.03 0.03 0.00 0.01 0.01 0.00 0.01 0.01 0.00 0.01 0.01 0.00 0.00 0.00 0.00 0.00 0.00 0.00 0.00 0.00 0.00
0.00 0.00 0.00 0.00 0.00 0.00 0.00 0.00 0.00 0.00 0.00 0.00 0.00 0.00 0.00 0.00 0.00 0.00 0.00 0.01 0.01 0.01 0.05 0.06 0.03 0.02 0.02 0.02 0.02 0.01 0.01 0.01 0.03 0.02 0.00 0.00 0.00 0.01 0.01 0.00 0.00 0.00 0.00
0.00 0.00 0.00 0.00 0.00 0.00 0.00 0.00 0.00 0.00 0.00 0.00 0.00 0.00 0.00 0.00 0.00 0.00 0.00 0.01 0.04 0.03 0.05 0.05 0.04 0.01 0.01 0.03 0.04 0.01 0.02 0.03 0.04 0.04 0.02 0.03 0.02 0.05 0.02 0.02 0.00 0.00 0.00
0.00 0.00 0.00 0.00 0.00 0.00 0.00 0.00 0.00 0.00 0.00 0.00 0.00 0.00 0.00 0.00 0.00 0.00 0.00 0.00 0.01 0.03 0.03 0.05 0.06 0.02 0.01 0.00 0.01 0.01 0.03 0.06 0.04 0.04 0.02 0.01 0.07 0.08 0.01 0.00 0.00 0.00 0.00
0.00 0.00 0.00 0.00 0.00 0.00 0.00 0.00 0.00 0.00 0.00 0.00 0.00 0.00 0.00 0.00 0.00 0.00 0.00 0.00 0.00 0.01 0.01 0.01 0.02 0.02 0.01 0.01 0.01 0.01 0.02 0.05 0.04 0.10 0.05 0.01 0.02 0.03 0.01 0.00 0.00 0.00 0.00
0.00 0.00 0.00 0.00 0.00 0.00 0.00 0.00 0.00 0.00 0.00 0.00 0.00 0.00 0.00 0.00 0.00 0.00 0.00 0.00 0.00 0.00 0.00 0.00 0.00 0.01 0.03 0.04 0.05 0.03 0.01 0.00 0.01 0.04 0.05 0.03 0.04 0.05 0.04 0.03 0.03 0.02 0.00
0.00 0.00 0.00 0.00 0.00 0.00 0.00 0.00 0.00 0.00 0.00 0.00 0.00 0.00 0.00 0.00 0.00 0.00 0.00 0.00 0.00 0.00 0.00 0.00 0.00 0.00 0.01 0.05 0.11 0.08 0.04 0.01 0.00 0.00 0.01 0.01 0.02 0.04 0.03 0.03 0.01 0.01 0.00
0.00 0.00 0.00 0.00 0.00 0.00 0.00 0.00 0.00 0.00 0.00 0.00 0.00 0.00 0.00 0.00 0.03 0.01 0.01 0.04 0.07 0.06 0.04 0.02 0.03 0.01 0.00 0.04 0.08 0.07 0.04 0.00 0.00 0.00 0.00 0.00 0.01 0.01 0.04 0.01 0.00 0.00 0.00
0.00 0.00 0.00 0.00 0.00 0.00 0.00 0.00 0.00 0.00 0.00 0.00 0.00 0.00 0.02 0.05 0.04 0.03 0.08 0.26 0.30 0.27 0.25 0.13 0.04 0.09 0.05 0.02 0.01 0.03 0.01 0.00 0.00 0.01 0.01 0.00 0.00 0.00 0.00 0.00 0.01 0.01 0.00
0.00 0.00 0.00 0.00 0.00 0.00 0.00 0.00 0.00 0.00 0.00 0.00 0.01 0.00 0.05 0.05 0.03 0.01 0.01 0.02 0.02 0.03 0.02 0.00 0.01 0.02 0.02 0.03 0.03 0.01 0.02 0.04 0.03 0.02 0.02 0.01 0.01 0.01 0.00 0.00 0.00 0.01 0.01
0.00 0.00 0.00 0.00 0.00 0.00 0.00 0.00 0.00 0.00 0.00 0.00 0.01 0.00 0.00 0.00 0.00 0.00 0.00 0.00 0.01 0.00 0.00 0.00 0.00 0.01 0.03 0.06 0.03 0.01 0.03 0.04 0.06 0.04 0.02 0.00 0.00 0.00 0.02 0.03 0.01 0.02 0.04
0.00 0.00 0.00 0.01 0.00 0.00 0.00 0.00 0.01 0.01 0.02 0.01 0.02 0.01 0.00 0.00 0.01 0.00 0.00 0.02 0.00 0.03 0.08 0.04 0.04 0.02 0.03 0.03 0.03 0.01 0.02 0.02 0.03 0.01 0.00 0.00 0.00 0.01 0.02 0.04 0.05 0.04 0.05
0.00 0.00 0.00 0.00 0.00 0.00 0.00 0.00 0.00 0.00 0.01 0.02 0.02 0.02 0.04 0.02 0.00 0.00 0.00 0.00 0.00 0.01 0.04 0.10 0.15 0.12 0.06 0.02 0.04 0.04 0.07 0.05 0.01 0.00 0.00 0.00 0.00 0.01 0.02 0.06 0.10 0.08 0.07
0.00 0.00 0.00 0.01 0.01 0.01 0.01 0.01 0.01 0.04 0.05 0.04 0.07 0.08 0.08 0.06 0.01 0.00 0.00 0.00 0.00 0.01 0.01 0.03 0.10 0.13 0.06 0.04 0.08 0.11 0.08 0.06 0.04 0.02 0.02 0.02 0.00 0.01 0.03 0.06 0.07 0.05 0.05
0.01 0.01 0.01 0.02 0.04 0.03 0.04 0.07 0.09 0.18 0.15 0.12 0.07 0.05 0.04 0.03 0.00 0.00 0.00 0.00 0.00 0.00 0.01 0.02 0.04 0.15 0.49 0.48 0.42 0.27 0.14 0.15 0.10 0.04 0.04 0.06 0.03 0.02 0.10 0.22 0.17 0.19 0.24
0.00 0.01 0.01 0.01 0.00 0.02 0.07 0.09 0.09 0.09 0.14 0.22 0.14 0.06 0.03 0.05 0.00 0.00 0.00 0.00 0.00 0.00 0.00 0.00 0.01 0.05 0.27 0.47 0.83 0.85 0.32 0.10 0.06 0.06 0.08 0.11 0.08 0.09 0.04 0.17 0.45 0.32 0.48
0.00 0.00 0.01 0.00 0.00 0.02 0.02 0.04 0.04 0.07 0.08 0.10 0.04 0.01 0.02 0.03 0.00 0.00 0.00 0.01 0.00 0.00 0.00 0.00 0.00 0.00 0.03 0.08 0.34 0.43 0.15 0.17 0.07 0.05 0.09 0.11 0.15 0.21 0.25 0.32 0.23 0.26 0.29
0.00 0.00 0.00 0.00 0.00 0.01 0.00 0.01 0.04 0.05 0.06 0.10 0.09 0.05 0.08 0.03 0.00 0.00 0.01 0.05 0.04 0.00 0.00 0.00 0.00 0.00 0.00 0.00 0.00 0.05 0.04 0.03 0.01 0.06 0.13 0.15 0.07 0.08 0.21 0.37 0.24 0.16 0.20
0.01 0.00 0.00 0.00 0.01 0.01 0.00 0.00 0.02 0.08 0.12 0.10 0.10 0.25 0.16 0.04 0.00 0.01 0.02 0.01 0.03 0.00 0.01 0.00 0.00 0.00 0.00 0.00 0.00 0.00 0.00 0.00 0.00 0.00 0.00 0.01 0.02 0.05 0.04 0.04 0.08 0.11 0.13
0.02 0.01 0.00 0.00 0.01 0.07 0.01 0.01 0.00 0.01 0.05 0.05 0.06 0.20 0.06 0.01 0.00 0.00 0.02 0.01 0.01 0.01 0.00 0.00 0.00 0.00 0.00 0.01 0.00 0.00 0.00 0.00 0.00 0.00 0.00 0.00 0.00 0.00 0.01 0.00 0.00 0.00 0.01
0.04 0.04 0.01 0.01 0.01 0.03 0.01 0.00 0.00 0.00 0.03 0.03 0.01 0.03 0.01 0.02 0.00 0.00 0.00 0.00 0.02 0.05 0.02 0.00 0.00 0.00 0.00 0.01 0.03 0.03 0.01 0.01 0.00 0.00 0.00 0.00 0.00 0.00 0.00 0.00 0.00 0.00 0.00
0.01 0.01 0.02 0.05 0.04 0.03 0.05 0.01 0.01 0.01 0.00 0.00 0.00 0.01 0.02 0.01 0.00 0.00 0.00 0.00 0.01 0.02 0.02 0.01 0.01 0.00 0.01 0.01 0.01 0.01 0.00 0.00 0.00 0.00 0.00 0.00 0.00 0.00 0.00 0.00 0.00 0.00 0.00
0.00 0.00 0.00 0.02 0.06 0.06 0.02 0.01 0.01 0.00 0.00 0.00 0.00 0.00 0.01 0.00 0.00 0.00 0.00 0.00 0.01 0.01 0.01 0.01 0.00 0.00 0.00 0.01 0.02 0.01 0.00 0.00 0.01 0.00 0.00 0.01 0.00 0.00 0.00 0.00 0.00 0.00 0.00
0.00 0.00 0.00 0.01 0.01 0.01 0.04 0.09 0.08 0.12 0.05 0.00 0.02 0.05 0.06 0.04 0.00 0.00 0.00 0.00 0.00 0.00 0.00 0.00 0.01 0.00 0.00 0.01 0.01 0.01 0.01 0.00 0.00 0.00 0.00 0.00 0.00 0.00 0.00 0.00 0.00 0.00 0.00
MSLP
1014.07 1014.45 1014.66 1014.86 1015.07 1015.19 1015.18 1014.95 1014.73 1014.60 1014.43 1014.19 1013.94 1013.78 1013.64 1013.46 1013.33 1013.20 1013.03 1012.72 1012.74 1012.69 1012.56 1012.58 1012.45 1012.24 1011.98 1011.78 1012.10 1012.18 1012.24 1012.12 1011.03 1010.44 1010.67 1010.90 1011.12 1011.19 1011.00 1011.24 1011.28 1010.95 1010.70
1014.41 1014.47 1014.48 1014.70 1014.86 1014.81 1014.67 1014.52 1014.43 1014.23 1013.92 1013.66 1013.41 1013.18 1012.98 1012.88 1012.76 1012.54 1012.24 1012.00 1011.83 1011.75 1011.52 1011.49 1011.48 1011.55 1011.42 1011.22 1011.22 1010.97 1011.32 1011.25 1011.01 1010.23 1010.12 1010.26 1010.53 1010.65 1010.76 1011.02 1010.81 1010.53 1010.37
1014.08 1014.17 1014.36 1014.67 1014.64 1014.42 1014.31 1014.16 1013.91 1013.66 1013.34 1012.94 1012.71 1012.44 1012.20 1012.08 1012.01 1011.87 1011.66 1011.29 1010.96 1010.71 1010.58 1010.48 1010.10 1010.06 1010.18 1010.30 1010.20 1010.21 1010.06 1010.19 1010.30 1010.22 1009.86 1009.81 1009.71 1009.86 1010.14 1010.44 1010.36 1010.08 1010.07
1013.98 1014.29 1014.43 1014.45 1014.33 1014.16 1014.04 1013.78 1013.49 1013.19 1012.75 1012.32 1012.06 1011.85 1011.62 1011.43 1011.31 1011.14 1010.86 1010.56 1010.26 1009.84 1009.55 1009.41 1009.27 1009.03 1008.89 1008.89 1009.00 1009.07 1009.17 1009.28 1009.47 1009.63 1009.31 1009.17 1009.24 1009.29 1009.67 1009.83 1009.46 1009.41 1009.04
1014.09 1014.27 1014.16 1014.02 1013.88 1013.83 1013.70 1013.46 1013.13 1012.72 1012.23 1011.85 1011.41 1011.14 1010.99 1010.73 1010.49 1010.30 1010.12 1009.70 1009.40 1009.01 1008.66 1008.58 1008.35 1008.22 1008.02 1008.06 1008.16 1007.83 1007.97 1008.27 1008.53 1008.64 1008.43 1008.52 1008.59 1008.76 1008.95 1009.30 1008.91 1008.41 1007.95
1014.06 1013.94 1013.64 1013.60 1013.66 1013.59 1013.34 1013.02 1012.58 1012.13 1011.72 1011.30 1010.95 1010.66 1010.47 1010.00 1009.78 1009.95 1009.85 1009.15 1008.65 1008.21 1007.83 1007.55 1007.42 1007.38 1007.22 1007.22 1007.23 1007.10 1007.30 1007.33 1007.53 1007.67 1007.50 1007.54 1007.67 1008.29 1008.37 1008.46 1008.04 1007.79 1007.00
1013.91 1013.55 1013.38 1013.35 1013.21 1012.90 1012.62 1012.32 1011.81 1011.34 1011.13 1010.92 1010.55 1010.30 1009.96 1009.52 1009.13 1009.19 1009.19 1008.88 1008.09 1007.44 1007.00 1006.72 1006.59 1006.25 1006.19 1005.88 1005.69 1005.90 1006.12 1006.31 1006.52 1006.66 1006.60 1006.38 1006.64 1006.85 1007.19 1007.26 1007.02 1006.88 1006.46
1013.42 1013.09 1012.95 1012.76 1012.66 1012.47 1012.28 1011.93 1011.51 1010.96 1010.60 1010.41 1010.00 1009.74 1009.35 1008.89 1008.48 1008.50 1008.31 1008.17 1007.59 1006.94 1006.42 1006.00 1005.56 1005.16 1005.14 1005.01 1004.79 1004.58 1004.58 1004.82 1005.17 1005.58 1005.67 1005.34 1005.46 1005.88 1006.00 1006.01 1006.15 1006.45 1006.38
1012.76 1012.67 1012.58 1012.51 1012.28 1012.01 1011.69 1011.23 1010.85 1010.62 1010.13 1009.77 1009.30 1009.01 1008.57 1008.06 1007.83 1007.74 1007.68 1007.36 1006.90 1006.30 1005.61 1005.16 1004.88 1004.29 1004.04 1004.18 1004.19 1003.85 1003.59 1003.40 1003.61 1004.01 1004.20 1004.46 1004.82 1004.97 1005.05 1005.60 1005.52 1005.60 1005.26
1012.48 1012.25 1012.13 1011.96 1011.73 1011.47 1011.21 1010.83 1010.42 1010.12 1009.63 1009.32 1008.61 1008.30 1007.84 1007.46 1006.93 1006.99 1007.11 1006.92 1006.42 1005.77 1005.34 1004.39 1003.93 1003.48 1003.15 1003.18 1003.27 1002.94 1002.67 1002.13 1002.66 1002.98 1003.39 1003.81 1004.06 1004.39 1004.61 1004.74 1004.61 1004.29 1004.55
1012.32 1012.11 1011.76 1011.39 1011.18 1011.04 1010.77 1010.38 1009.81 1009.42 1009.01 1008.67 1008.14 1007.44 1007.17 1006.69 1006.24 1006.39 1006.47 1006.23 1005.90 1005.29 1004.51 1003.15 1003.15 1002.44 1002.32 1002.39 1002.41 1002.15 1001.44 1001.24 1001.72 1002.19 1002.49 1002.75 1002.96 1003.02 1003.25 1003.53 1003.71 1003.73 1003.45
1012.25 1011.79 1011.36 1011.02 1010.77 1010.43 1010.27 1009.78 1009.33 1008.94 1008.52 1008.00 1007.46 1006.90 1006.40 1006.19 1005.90 1005.98 1005.65 1005.43 1005.43 1005.10 1003.93 1003.22 1002.23 1001.75 1001.58 1001.40 1001.27 1001.06 1001.09 1001.22 1001.13 1001.24 1001.57 1001.69 1001.70 1001.56 1001.50 1001.80 1002.43 1002.77 1002.66
1012.02 1011.40 1010.91 1010.61 1010.30 1010.00 1009.72 1009.28 1008.81 1008.24 1007.80 1007.18 1006.75 1006.51 1006.34 1006.16 1005.73 1005.36 1004.90 1004.81 1004.90 1004.48 1003.32 1002.58 1001.77 1001.06 1000.77 1000.68 1000.49 1000.42 1000.56 1000.69 1000.48 1000.27 1000.40 1000.44 1000.61 1000.91 1001.01 1001.20 1001.49 1001.95 1002.11
1011.89 1011.23 1010.70 1010.22 1009.79 1009.47 1009.14 1008.77 1008.44 1007.94 1007.46 1006.76 1006.60 1006.59 1006.46 1005.71 1005.11 1004.78 1004.49 1004.58 1003.89 1003.25 1002.58 1001.80 1000.81 1000.06 999.85 999.45 999.34 999.41 999.55 999.46 999.42 999.43 999.52 999.76 999.96 1000.25 1000.38 1000.26 1000.52 1000.94 1001.27
1011.99 1011.48 1010.87 1010.18 1009.62 1009.12 1008.67 1008.51 1008.35 1007.64 1007.54 1007.11 1006.77 1006.81 1006.45 1005.49 1004.94 1004.97 1005.19 1004.74 1004.05 1003.54 1003.32 1001.50 1000.09 999.15 998.82 998.48 998.34 998.30 998.36 998.44 998.48 998.58 998.92 999.14 999.14 999.34 999.27 999.12 999.43 999.89 1000.29
1012.05 1011.39 1010.74 1010.28 1009.57 1009.15 1008.62 1007.89 1007.28 1007.25 1006.82 1006.47 1006.31 1006.72 1005.83 1005.68 1004.97 1004.84 1004.78 1004.43 1003.81 1003.41 1002.60 1001.17 1000.31 999.54 998.68 998.17 997.68 997.51 997.47 997.52 997.51 997.85 998.21 998.23 998.38 998.63 998.70 998.83 998.92 999.08 999.36
1012.27 1011.28 1010.41 1009.88 1009.36 1008.82 1008.18 1007.79 1007.00 1006.39 1005.98 1005.82 1005.57 1005.42 1005.23 1004.99 1004.89 1004.98 1004.83 1004.16 1003.07 1002.44 1001.71 1000.83 1000.29 999.66 999.10 998.29 997.56 996.98 996.92 996.86 997.06 997.33 997.52 997.50 997.54 997.75 998.10 998.17 998.23 998.47 998.86
1012.16 1011.15 1010.35 1009.67 1009.06 1008.35 1007.81 1007.22 1006.91 1006.51 1006.08 1005.69 1005.45 1005.09 1004.39 1004.34 1004.32 1004.43 1004.42 1003.70 1002.18 1001.77 1001.08 1000.39 1000.20 999.91 999.55 998.68 997.70 996.31 996.09 997.01 997.13 997.25 997.30 997.31 997.32 997.52 997.80 997.76 997.76 998.21 998.83
1011.94 1010.93 1010.04 1009.51 1008.90 1008.29 1007.56 1007.02 1006.60 1006.09 1006.00 1005.70 1005.06 1004.57 1004.19 1003.93 1003.58 1003.51 1003.70 1003.00 1001.72 1001.11 1000.77 1000.25 1000.04 1000.01 999.57 999.23 998.88 998.05 997.66 997.42 997.45 997.64 997.55 997.58 997.61 997.59 997.62 997.82 998.26 998.53 999.00
1011.63 1010.75 1010.12 1009.36 1008.79 1008.13 1007.28 1006.93 1006.35 1006.31 1006.09 1005.74 1005.22 1004.88 1004.43 1004.00 1003.18 1003.08 1003.12 1002.17 1001.56 1001.05 1000.88 1000.49 1000.18 1000.02 999.84 999.71 999.39 999.15 998.97 998.72 998.42 998.22 998.14 998.06 998.12 998.29 998.33 998.05 998.28 998.84 999.02
1011.58 1010.80 1010.22 1009.44 1009.17 1008.65 1007.60 1007.29 1006.86 1006.61 1006.61 1006.26 1005.84 1005.58 1005.09 1004.72 1003.73 1003.67 1003.10 1002.17 1001.86 1001.50 1001.29 1000.94 1000.49 1000.11 999.74 999.67 999.54 999.17 998.93 999.00 998.88 998.81 998.54 998.82 999.08 999.30 999.41 999.40 999.39 999.59 999.97
1012.25 1011.73 1010.94 1010.32 1010.04 1009.54 1008.71 1008.21 1007.53 1007.43 1007.57 1007.00 1006.80 1006.46 1005.91 1005.22 1004.64 1004.16 1003.64 1003.15 1002.88 1002.65 1002.12 1001.84 1000.74 1000.63 1000.56 1000.25 999.78 999.36 999.32 999.21 999.09 999.04 999.04 999.03 999.22 999.51 999.84 1000.08 1000.14 1000.43 1000.78
1012.96 1012.28 1011.89 1011.53 1010.99 1010.36 1009.83 1009.33 1008.93 1008.40 1008.32 1007.91 1007.73 1007.56 1007.14 1006.72 1006.20 1005.86 1005.25 1004.46 1004.16 1003.88 1003.53 1002.93 1002.60 1002.06 1001.52 1001.11 1001.21 1000.93 1000.52 1000.23 1000.05 999.76 999.45 999.41 999.62 999.75 999.93 1000.10 1000.37 1000.63 1000.87
1013.59 1013.14 1012.78 1012.36 1011.90 1011.37 1010.87 1010.51 1009.99 1009.84 1009.58 1008.98 1008.64 1008.57 1008.31 1007.67 1007.21 1006.93 1006.65 1006.29 1005.84 1005.47 1005.15 1004.78 1004.30 1004.09 1003.72 1003.33 1003.00 1002.56 1002.30 1002.14 1001.29 1000.73 1000.41 999.92 999.99 1000.11 1000.18 1000.33 1000.50 1000.85 1001.01
1014.40 1013.94 1013.69 1013.30 1012.74 1012.49 1012.06 1011.71 1011.05 1010.91 1010.62 1010.56 1010.19 1009.83 1009.42 1008.20 1008.24 1008.12 1007.78 1007.42 1007.20 1006.76 1006.43 1006.26 1006.10 1005.86 1005.54 1005.32 1005.07 1004.54 1004.10 1003.30 1002.27 1001.74 1000.89 1000.66 1000.72 1000.73 1000.64 1000.69 1000.91 1001.01 1001.29
1014.70 1014.48 1014.25 1013.81 1013.55 1013.40 1013.25 1012.72 1012.30 1012.11 1011.59 1011.40 1011.24 1010.85 1010.25 1009.72 1009.33 1009.18 1008.90 1008.47 1007.94 1007.61 1007.42 1007.02 1006.91 1006.68 1006.38 1006.30 1006.27 1005.76 1004.92 1004.07 1003.18 1002.47 1001.65 1001.04 1000.74 1000.57 1000.87 1001.03 1001.13 1001.01 1001.22
Thickness
5764 5759 5755 5751 5748 5744 5741 5741 5740 5740 5738 5738 5736 5734 5732 5731 5730 5729 5728 5730 5728 5728 5730 5728 5729 5733 5735 5738 5736 5736 5737 5740 5749 5758 5759 5759 5757 5757 5759 5757 5757 5759 5761
5752 5749 5747 5743 5738 5737 5735 5734 5731 5729 5729 5728 5728 5726 5725 5723 5722 5721 5721 5721 5720 5720 5724 5722 5724 5725 5726 5730 5732 5736 5734 5738 5742 5748 5754 5756 5753 5755 5756 5754 5755 5758 5759
5744 5741 5736 5730 5728 5727 5726 5724 5723 5720 5720 5720 5718 5717 5716 5714 5712 5712 5711 5712 5713 5715 5718 5718 5722 5722 5724 5724 5726 5728 5735 5736 5739 5741 5746 5754 5756 5756 5753 5753 5753 5756 5758
5733 5727 5721 5718 5717 5715 5713 5712 5711 5709 5708 5708 5707 5706 5705 5703 5702 5700 5701 5703 5704 5708 5711 5713 5715 5718 5721 5724 5724 5725 5729 5731 5733 5735 5743 5749 5752 5754 5750 5746 5750 5755 5759
5719 5713 5710 5709 5706 5703 5699 5696 5695 5694 5694 5694 5694 5694 5693 5692 5692 5689 5689 5694 5695 5698 5702 5704 5708 5712 5715 5717 5717 5724 5727 5727 5728 5730 5739 5743 5747 5747 5744 5743 5747 5753 5761
5706 5702 5700 5696 5691 5688 5684 5681 5681 5681 5680 5681 5680 5680 5679 5681 5680 5675 5675 5681 5686 5688 5691 5694 5699 5702 5706 5708 5710 5716 5718 5721 5722 5726 5735 5739 5745 5743 5744 5743 5747 5748 5751
5694 5692 5688 5682 5678 5675 5672 5668 5666 5667 5666 5664 5664 5664 5665 5669 5669 5667 5665 5667 5673 5678 5681 5685 5687 5696 5699 5705 5709 5710 5712 5715 5721 5727 5731 5740 5742 5747 5747 5745 5749 5752 5756
5686 5681 5675 5671 5663 5658 5653 5650 5647 5649 5649 5649 5650 5651 5654 5658 5658 5657 5656 5656 5659 5665 5670 5675 5681 5689 5693 5696 5701 5705 5710 5714 5719 5723 5729 5742 5746 5747 5749 5750 5749 5749 5757
5674 5666 5660 5653 5648 5644 5640 5638 5635 5632 5632 5634 5639 5641 5644 5649 5649 5647 5645 5647 5648 5654 5661 5667 5673 5681 5688 5688 5690 5696 5702 5712 5719 5722 5730 5735 5739 5742 5746 5742 5744 5743 5749
5660 5656 5648 5642 5637 5633 5629 5627 5625 5622 5624 5625 5630 5633 5638 5641 5644 5638 5636 5637 5639 5644 5647 5658 5665 5673 5679 5682 5686 5692 5693 5709 5711 5716 5721 5724 5728 5732 5734 5739 5745 5746 5747
5649 5644 5638 5634 5628 5623 5619 5619 5618 5618 5618 5619 5623 5630 5632 5635 5637 5632 5629 5631 5630 5631 5637 5644 5654 5666 5671 5673 5677 5685 5699 5705 5706 5708 5712 5716 5722 5730 5736 5741 5744 5745 5746
5639 5634 5628 5625 5621 5617 5613 5614 5613 5613 5614 5616 5619 5624 5628 5628 5627 5626 5625 5625 5625 5625 5633 5640 5654 5661 5665 5669 5675 5684 5688 5692 5698 5703 5707 5713 5721 5731 5740 5743 5741 5742 5748
5629 5627 5625 5620 5616 5612 5608 5608 5610 5613 5612 5615 5617 5618 5618 5616 5619 5622 5623 5623 5624 5628 5637 5643 5650 5657 5661 5664 5671 5677 5680 5685 5693 5702 5709 5716 5721 5725 5729 5732 5735 5736 5740
5622 5620 5619 5616 5612 5608 5605 5605 5605 5606 5607 5611 5611 5610 5608 5613 5619 5619 5621 5623 5628 5633 5637 5641 5650 5658 5663 5669 5674 5679 5682 5688 5695 5701 5707 5711 5715 5716 5719 5726 5726 5728 5725
5613 5610 5609 5610 5607 5604 5602 5597 5595 5599 5598 5601 5604 5601 5601 5609 5613 5611 5609 5616 5621 5624 5622 5638 5651 5662 5666 5672 5677 5681 5683 5688 5694 5699 5702 5706 5711 5712 5716 5722 5722 5722 5719
5605 5605 5604 5602 5602 5598 5594 5595 5596 5591 5593 5595 5595 5591 5601 5600 5604 5605 5607 5611 5616 5618 5626 5637 5643 5653 5662 5669 5676 5681 5685 5689 5695 5698 5700 5704 5706 5707 5710 5711 5713 5713 5714
5597 5600 5602 5598 5598 5595 5594 5592 5593 5594 5595 5595 5597 5597 5599 5603 5602 5601 5604 5610 5619 5624 5634 5637 5641 5647 5652 5663 5672 5680 5684 5690 5693 5695 5698 5702 5704 5705 5703 5704 5704 5705 5705
5590 5594 5597 5596 5597 5596 5596 5596 5594 5593 5595 5597 5599 5600 5607 5606 5606 5604 5605 5612 5634 5634 5637 5637 5637 5641 5642 5651 5661 5668 5677 5678 5684 5686 5688 5693 5696 5696 5695 5695 5696 5694 5692
5586 5591 5595 5594 5594 5593 5596 5596 5596 5596 5595 5596 5602 5606 5608 5608 5609 5609 5607 5624 5631 5634 5635 5637 5638 5635 5638 5643 5646 5654 5660 5668 5671 5674 5679 5682 5685 5688 5688 5688 5685 5684 5683
5584 5587 5589 5592 5590 5592 5596 5593 5595 5591 5592 5595 5599 5602 5606 5609 5618 5620 5618 5626 5627 5630 5631 5634 5636 5636 5635 5636 5640 5645 5648 5653 5659 5663 5667 5670 5671 5674 5674 5677 5676 5676 5675
5578 5581 5582 5587 5584 5584 5591 5589 5589 5589 5585 5588 5593 5595 5590 5600 5612 5609 5613 5621 5621 5623 5623 5626 5630 5635 5638 5638 5639 5643 5643 5647 5651 5654 5661 5659 5656 5656 5657 5659 5662 5663 5661
5560 5562 5568 5572 5571 5571 5576 5578 5582 5580 5575 5581 5580 5582 5584 5595 5600 5603 5606 5609 5609 5610 5615 5617 5626 5628 5629 5632 5636 5640 5640 5642 5645 5647 5648 5651 5652 5651 5648 5647 5648 5647 5646
5545 5549 5550 5550 5554 5558 5562 5564 5565 5569 5567 5568 5571 5570 5573 5575 5580 5580 5586 5593 5595 5597 5600 5604 5607 5612 5619 5623 5622 5622 5625 5630 5633 5636 5638 5641 5641 5641 5641 5638 5637 5637 5638
5531 5532 5532 5534 5537 5542 5545 5548 5552 5550 5551 5556 5559 5557 5559 5563 5567 5568 5570 5573 5576 5579 5582 5584 5588 5591 5594 5598 5602 5606 5608 5611 5620 5626 5627 5630 5630 5630 5631 5631 5631 5629 5629
5514 5514 5511 5514 5519 5522 5527 5531 5536 5537 5538 5537 5539 5541 5546 5556 5555 5555 5557 5559 5560 5563 5566 5567 5567 5569 5572 5574 5578 5584 5588 5595 5604 5608 5620 5620 5618 5619 5621 5622 5620 5620 5619
5501 5498 5496 5499 5502 5502 5506 5514 5518 5519 5524 5526 5526 5528 5533 5539 5544 5544 5545 5549 5553 5554 5555 5558 5557 5558 5561 5562 5562 5568 5576 5583 5590 5598 5608 5611 5612 5614 5613 5612 5612 5614 5612